DAL864 KIAH-KMSY

Flight info

Callsign DAL864
Flight time 0h 46m
Altitude 33000
Route GUMBY3 GUSTI AWDAD AWDAD1
Aircraft E75L/M-SDE3GILORVW/S

Departure

Time 2026-05-06 02:33
Airport George Bush Intercontinental Airport (KIAH)

Arrival

Time 2026-05-06 03:19
Airport Louis Armstrong New Orleans International Airport (KMSY)
Time Latitude Longitude Altitude Speed Heading
2026-05-06 02:13 29.98882 -95.34997 95 ft 0 kts 90°
2026-05-06 02:24 29.98882 -95.34995 95 ft 0 kts 90°
2026-05-06 02:25 29.98882 -95.35011 95 ft 2 kts 90°
2026-05-06 02:25 29.98882 -95.35028 95 ft 2 kts 90°
2026-05-06 02:25 29.98883 -95.35045 95 ft 2 kts 107°
2026-05-06 02:25 29.98890 -95.35060 95 ft 2 kts 129°
2026-05-06 02:26 29.98901 -95.35072 95 ft 2 kts 151°
2026-05-06 02:26 29.98915 -95.35077 95 ft 2 kts 173°
2026-05-06 02:26 29.98923 -95.35078 95 ft 0 kts 181°
2026-05-06 02:28 29.98920 -95.35078 95 ft 1 kts 181°
2026-05-06 02:29 29.98906 -95.35078 95 ft 2 kts 186°
2026-05-06 02:29 29.98884 -95.35094 95 ft 4 kts 235°
2026-05-06 02:29 29.98876 -95.35138 95 ft 6 kts 269°
2026-05-06 02:29 29.98878 -95.35198 95 ft 8 kts 269°
2026-05-06 02:30 29.98894 -95.35268 95 ft 10 kts 305°
2026-05-06 02:30 29.98920 -95.35349 95 ft 11 kts 276°
2026-05-06 02:30 29.98920 -95.35449 95 ft 13 kts 265°
2026-05-06 02:30 29.98885 -95.35558 95 ft 15 kts 242°
2026-05-06 02:31 29.98839 -95.35656 95 ft 8 kts 242°
2026-05-06 02:31 29.98832 -95.35670 95 ft 0 kts 241°
2026-05-06 02:31 29.98831 -95.35672 95 ft 1 kts 241°
2026-05-06 02:31 29.98822 -95.35689 95 ft 3 kts 241°
2026-05-06 02:32 29.98805 -95.35725 95 ft 6 kts 241°
2026-05-06 02:32 29.98769 -95.35764 95 ft 8 kts 189°
2026-05-06 02:32 29.98706 -95.35738 95 ft 11 kts 153°
2026-05-06 02:32 29.98530 -95.35629 95 ft 55 kts 152°
2026-05-06 02:33 29.98011 -95.35307 95 ft 111 kts 152°
2026-05-06 02:33 29.97481 -95.34984 93 ft 143 kts 152°
2026-05-06 02:33 29.95600 -95.33168 1116 ft 158 kts 114°
2026-05-06 02:34 29.95364 -95.31909 1632 ft 168 kts 104°
2026-05-06 02:34 29.95107 -95.30578 2155 ft 176 kts 112°
2026-05-06 02:34 29.94778 -95.29197 2698 ft 185 kts 111°
2026-05-06 02:34 29.94431 -95.27742 3296 ft 191 kts 110°
2026-05-06 02:35 29.94084 -95.26281 3862 ft 187 kts 110°
2026-05-06 02:35 29.93756 -95.24763 3975 ft 199 kts 99°
2026-05-06 02:35 29.93747 -95.23144 4009 ft 203 kts 94°
2026-05-06 02:35 29.93770 -95.21520 3943 ft 207 kts 94°
2026-05-06 02:36 29.93794 -95.19727 4023 ft 237 kts 93°
2026-05-06 02:36 29.93825 -95.17696 4046 ft 266 kts 92°
2026-05-06 02:36 29.93859 -95.15517 4029 ft 279 kts 92°
2026-05-06 02:36 29.93894 -95.13259 4013 ft 280 kts 92°
2026-05-06 02:37 29.93926 -95.11005 4161 ft 288 kts 92°
2026-05-06 02:37 29.93960 -95.08693 4714 ft 290 kts 92°
2026-05-06 02:37 29.93856 -95.06397 5119 ft 289 kts 100°
2026-05-06 02:37 29.93621 -95.04125 5693 ft 290 kts 99°
2026-05-06 02:38 29.93386 -95.01810 6335 ft 291 kts 99°
2026-05-06 02:38 29.93151 -94.99481 6907 ft 294 kts 99°
2026-05-06 02:38 29.92917 -94.97157 7451 ft 298 kts 99°
2026-05-06 02:38 29.92678 -94.94774 8024 ft 301 kts 99°
2026-05-06 02:39 29.92438 -94.92396 8574 ft 304 kts 98°
2026-05-06 02:39 29.92193 -94.89960 9136 ft 308 kts 98°
2026-05-06 02:39 29.91943 -94.87489 9698 ft 311 kts 98°
2026-05-06 02:39 29.91694 -94.85024 10231 ft 316 kts 98°
2026-05-06 02:40 29.91437 -94.82489 10740 ft 322 kts 98°
2026-05-06 02:40 29.91174 -94.79892 11171 ft 330 kts 98°
2026-05-06 02:40 29.90906 -94.77260 11580 ft 339 kts 98°
2026-05-06 02:40 29.90628 -94.74521 11978 ft 349 kts 97°
2026-05-06 02:41 29.90340 -94.71705 12405 ft 357 kts 97°
2026-05-06 02:41 29.90051 -94.68873 12878 ft 363 kts 97°
2026-05-06 02:41 29.89754 -94.65960 13400 ft 368 kts 97°
2026-05-06 02:41 29.89456 -94.63055 13945 ft 372 kts 97°
2026-05-06 02:42 29.89150 -94.60090 14503 ft 375 kts 97°
2026-05-06 02:42 29.88841 -94.57090 15079 ft 378 kts 97°
2026-05-06 02:42 29.88530 -94.54099 15589 ft 382 kts 97°
2026-05-06 02:42 29.88214 -94.51042 16084 ft 386 kts 97°
2026-05-06 02:43 29.87892 -94.47948 16577 ft 390 kts 97°
2026-05-06 02:43 29.87572 -94.44875 17082 ft 393 kts 97°
2026-05-06 02:43 29.87243 -94.41729 17527 ft 398 kts 97°
2026-05-06 02:43 29.86911 -94.38547 17964 ft 402 kts 97°
2026-05-06 02:44 29.86576 -94.35358 18404 ft 405 kts 97°
2026-05-06 02:44 29.86241 -94.32115 18823 ft 409 kts 96°
2026-05-06 02:44 29.86147 -94.28867 19218 ft 413 kts 92°
2026-05-06 02:44 29.86045 -94.25539 19589 ft 417 kts 92°
2026-05-06 02:45 29.85941 -94.22180 19954 ft 421 kts 92°
2026-05-06 02:45 29.85836 -94.18786 20287 ft 426 kts 92°
2026-05-06 02:45 29.85733 -94.15409 20650 ft 429 kts 92°
2026-05-06 02:45 29.85625 -94.11959 21014 ft 432 kts 92°
2026-05-06 02:46 29.85515 -94.08483 21358 ft 435 kts 92°
2026-05-06 02:46 29.85419 -94.05028 21682 ft 439 kts 88°
2026-05-06 02:46 29.85720 -94.01514 22007 ft 442 kts 81°
2026-05-06 02:46 29.86093 -93.97974 22285 ft 447 kts 82°
2026-05-06 02:47 29.86466 -93.94458 22611 ft 449 kts 81°
2026-05-06 02:47 29.86848 -93.90870 22950 ft 452 kts 81°
2026-05-06 02:47 29.87231 -93.87266 23267 ft 454 kts 81°
2026-05-06 02:47 29.87617 -93.83636 23586 ft 457 kts 81°
2026-05-06 02:48 29.87998 -93.80042 23894 ft 459 kts 81°
2026-05-06 02:48 29.88385 -93.76372 24185 ft 462 kts 81°
2026-05-06 02:48 29.88774 -93.72685 24501 ft 464 kts 81°
2026-05-06 02:48 29.89157 -93.69031 24785 ft 467 kts 81°
2026-05-06 02:49 29.89548 -93.65301 25059 ft 469 kts 81°
2026-05-06 02:49 29.89941 -93.61551 25324 ft 472 kts 81°
2026-05-06 02:49 29.90328 -93.57832 25582 ft 475 kts 81°
2026-05-06 02:49 29.90723 -93.54040 25859 ft 477 kts 81°
2026-05-06 02:50 29.91118 -93.50233 26129 ft 479 kts 81°
2026-05-06 02:50 29.91512 -93.46409 26387 ft 481 kts 81°
2026-05-06 02:50 29.91903 -93.42620 26632 ft 484 kts 80°
2026-05-06 02:50 29.92300 -93.38758 26874 ft 486 kts 81°
2026-05-06 02:51 29.92697 -93.34882 27152 ft 487 kts 81°
2026-05-06 02:51 29.93091 -93.31045 27351 ft 490 kts 81°
2026-05-06 02:51 29.93488 -93.27137 27585 ft 491 kts 81°
2026-05-06 02:51 29.93887 -93.23210 27778 ft 493 kts 81°
2026-05-06 02:52 29.94286 -93.19270 27968 ft 496 kts 81°
2026-05-06 02:52 29.94681 -93.15369 28180 ft 497 kts 81°
2026-05-06 02:52 29.95079 -93.11399 28391 ft 499 kts 81°
2026-05-06 02:52 29.95480 -93.07416 28584 ft 501 kts 81°
2026-05-06 02:53 29.95873 -93.03475 28773 ft 502 kts 81°
2026-05-06 02:53 29.96662 -92.95527 28889 ft 502 kts 81°
2026-05-06 02:54 29.97410 -92.87468 28892 ft 504 kts 83°
2026-05-06 02:54 29.97725 -92.83521 28827 ft 493 kts 82°
2026-05-06 02:54 29.98036 -92.79622 28260 ft 485 kts 82°
2026-05-06 02:54 29.98346 -92.75768 27429 ft 483 kts 82°
2026-05-06 02:55 29.98647 -92.72035 27679 ft 471 kts 82°
2026-05-06 02:55 29.98952 -92.68227 27631 ft 481 kts 82°
2026-05-06 02:55 29.99264 -92.64346 27644 ft 489 kts 82°
2026-05-06 02:55 29.99581 -92.60416 27642 ft 494 kts 82°
2026-05-06 02:56 29.99888 -92.56551 27615 ft 481 kts 82°
2026-05-06 02:56 30.00181 -92.52761 27506 ft 461 kts 82°
2026-05-06 02:56 30.00460 -92.49194 27326 ft 444 kts 82°
2026-05-06 02:56 30.00733 -92.45702 27086 ft 430 kts 82°
2026-05-06 02:57 30.00999 -92.42307 26794 ft 419 kts 81°
2026-05-06 02:57 30.01257 -92.38995 26463 ft 410 kts 81°
2026-05-06 02:57 30.01506 -92.35794 26114 ft 402 kts 81°
2026-05-06 02:57 30.01753 -92.32608 25732 ft 395 kts 82°
2026-05-06 02:58 30.01996 -92.29475 25318 ft 389 kts 82°
2026-05-06 02:58 30.02230 -92.26425 24898 ft 384 kts 82°
2026-05-06 02:58 30.02465 -92.23373 24474 ft 379 kts 82°
2026-05-06 02:58 30.02696 -92.20355 24044 ft 375 kts 82°
2026-05-06 02:59 30.02921 -92.17413 23622 ft 371 kts 81°
2026-05-06 02:59 30.03145 -92.14465 23197 ft 367 kts 82°
2026-05-06 02:59 30.03367 -92.11548 22771 ft 363 kts 82°
2026-05-06 02:59 30.03582 -92.08697 22363 ft 359 kts 81°
2026-05-06 03:00 30.03799 -92.05837 21958 ft 356 kts 82°
2026-05-06 03:00 30.04012 -92.03002 21552 ft 352 kts 82°
2026-05-06 03:00 30.04219 -92.00240 21153 ft 349 kts 82°
2026-05-06 03:00 30.04427 -91.97463 20751 ft 345 kts 82°
2026-05-06 03:01 30.04633 -91.94714 20355 ft 342 kts 82°
2026-05-06 03:01 30.04832 -91.92026 19964 ft 339 kts 82°
2026-05-06 03:01 30.05033 -91.89329 19572 ft 335 kts 82°
2026-05-06 03:01 30.05230 -91.86660 19178 ft 332 kts 82°
2026-05-06 03:02 30.05423 -91.84051 18797 ft 329 kts 82°
2026-05-06 03:02 30.05616 -91.81432 18409 ft 326 kts 82°
2026-05-06 03:02 30.05806 -91.78836 18026 ft 322 kts 82°
2026-05-06 03:02 30.05994 -91.76266 17643 ft 319 kts 82°
2026-05-06 03:03 30.06178 -91.73756 17260 ft 316 kts 82°
2026-05-06 03:03 30.06361 -91.71237 16874 ft 313 kts 83°
2026-05-06 03:03 30.06543 -91.68738 16496 ft 311 kts 83°
2026-05-06 03:03 30.06720 -91.66293 16131 ft 308 kts 83°
2026-05-06 03:04 30.06897 -91.63837 15768 ft 306 kts 83°
2026-05-06 03:04 30.07072 -91.61414 15400 ft 303 kts 83°
2026-05-06 03:04 30.07247 -91.58986 15021 ft 301 kts 83°
2026-05-06 03:04 30.07416 -91.56619 14654 ft 299 kts 83°
2026-05-06 03:05 30.07585 -91.54245 14464 ft 292 kts 83°
2026-05-06 03:05 30.07761 -91.51801 14535 ft 317 kts 83°
2026-05-06 03:05 30.07950 -91.49161 14601 ft 341 kts 83°
2026-05-06 03:05 30.08150 -91.46374 14666 ft 364 kts 83°
2026-05-06 03:06 30.08363 -91.43372 14695 ft 377 kts 83°
2026-05-06 03:06 30.08575 -91.40387 14700 ft 376 kts 83°
2026-05-06 03:06 30.08787 -91.37366 14706 ft 377 kts 83°
2026-05-06 03:06 30.08997 -91.34367 14710 ft 376 kts 84°
2026-05-06 03:07 30.09211 -91.31300 14702 ft 375 kts 84°
2026-05-06 03:07 30.09420 -91.28322 14545 ft 376 kts 84°
2026-05-06 03:07 30.09628 -91.25321 14153 ft 373 kts 84°
2026-05-06 03:07 30.09833 -91.22353 13748 ft 367 kts 84°
2026-05-06 03:08 30.10031 -91.19450 13352 ft 364 kts 84°
2026-05-06 03:08 30.10229 -91.16559 12945 ft 356 kts 84°
2026-05-06 03:08 30.10419 -91.13750 12554 ft 345 kts 84°
2026-05-06 03:08 30.10601 -91.11067 12187 ft 335 kts 84°
2026-05-06 03:09 30.10780 -91.08422 11811 ft 325 kts 84°
2026-05-06 03:09 30.10955 -91.05841 11463 ft 319 kts 84°
2026-05-06 03:09 30.11127 -91.03303 11125 ft 320 kts 84°
2026-05-06 03:09 30.11300 -91.00740 10768 ft 319 kts 85°
2026-05-06 03:10 30.11469 -90.98227 10430 ft 316 kts 85°
2026-05-06 03:10 30.11634 -90.95699 10074 ft 313 kts 88°
2026-05-06 03:10 30.11524 -90.93206 9725 ft 309 kts 95°
2026-05-06 03:10 30.11326 -90.90773 9391 ft 307 kts 96°
2026-05-06 03:11 30.11130 -90.88319 9082 ft 306 kts 96°
2026-05-06 03:11 30.10936 -90.85870 8728 ft 305 kts 96°
2026-05-06 03:11 30.10745 -90.83467 8408 ft 304 kts 96°
2026-05-06 03:11 30.10553 -90.81042 8059 ft 302 kts 96°
2026-05-06 03:12 30.10362 -90.78634 7727 ft 299 kts 96°
2026-05-06 03:12 30.10171 -90.76239 7416 ft 298 kts 97°
2026-05-06 03:12 30.09982 -90.73882 7063 ft 298 kts 97°
2026-05-06 03:12 30.09792 -90.71506 6745 ft 295 kts 97°
2026-05-06 03:13 30.09491 -90.69176 6408 ft 290 kts 107°
2026-05-06 03:13 30.08961 -90.66966 6113 ft 288 kts 108°
2026-05-06 03:13 30.08426 -90.64738 5786 ft 286 kts 107°
2026-05-06 03:13 30.07899 -90.62528 5466 ft 283 kts 108°
2026-05-06 03:14 30.07384 -90.60362 5155 ft 281 kts 108°
2026-05-06 03:14 30.06866 -90.58188 4845 ft 278 kts 108°
2026-05-06 03:14 30.06353 -90.56033 4536 ft 277 kts 108°
2026-05-06 03:14 30.05849 -90.53917 4233 ft 276 kts 108°
2026-05-06 03:15 30.05340 -90.51784 3930 ft 274 kts 108°
2026-05-06 03:15 30.04841 -90.49689 3587 ft 273 kts 108°
2026-05-06 03:15 30.04339 -90.47580 3235 ft 271 kts 108°
2026-05-06 03:15 30.03841 -90.45493 2881 ft 267 kts 108°
2026-05-06 03:16 30.03359 -90.43474 2537 ft 260 kts 108°
2026-05-06 03:16 30.02895 -90.41524 2187 ft 237 kts 108°
2026-05-06 03:16 30.02478 -90.39781 1879 ft 212 kts 109°
2026-05-06 03:16 30.02109 -90.38245 1618 ft 191 kts 110°
2026-05-06 03:17 30.01763 -90.36812 1363 ft 181 kts 109°
2026-05-06 03:17 30.01443 -90.35481 1234 ft 158 kts 109°
2026-05-06 03:17 30.01162 -90.34315 1038 ft 148 kts 110°
2026-05-06 03:17 30.00917 -90.33217 830 ft 133 kts 106°
2026-05-06 03:18 30.00709 -90.32215 624 ft 124 kts 109°
2026-05-06 03:18 30.00456 -90.31280 478 ft 122 kts 110°
2026-05-06 03:18 30.00215 -90.30325 355 ft 124 kts 109°
2026-05-06 03:18 29.99967 -90.29372 253 ft 125 kts 108°
2026-05-06 03:19 29.99732 -90.28402 96 ft 126 kts 108°
2026-05-06 03:19 29.99494 -90.27447 10 ft 116 kts 108°
2026-05-06 03:19 29.99318 -90.26746 10 ft 64 kts 106°
2026-05-06 03:19 29.99224 -90.26363 10 ft 47 kts 106°
2026-05-06 03:20 29.99090 -90.25806 10 ft 26 kts 106°
2026-05-06 03:20 29.99102 -90.25657 10 ft 15 kts 31°
2026-05-06 03:20 29.99200 -90.25605 10 ft 15 kts 43°
2026-05-06 03:21 29.99253 -90.25530 10 ft 7 kts 34°
2026-05-06 03:21 29.99303 -90.25514 10 ft 7 kts
2026-05-06 03:21 29.99344 -90.25500 10 ft 3 kts 22°
2026-05-06 03:21 29.99360 -90.25479 10 ft 4 kts 87°
2026-05-06 03:22 29.99360 -90.25459 10 ft 0 kts 81°
2026-05-06 03:22 29.99360 -90.25456 10 ft 0 kts 94°
2026-05-06 03:22 29.99360 -90.25448 10 ft 1 kts 94°
2026-05-06 03:22 29.99359 -90.25439 10 ft 0 kts 94°